Погода в Ямской Слободе

Россия / Новгородская область     58°15′45″N   32°30′55″E
темп.,
°C
ветер,
м/с
пор.,
м/с
влажн.,
%
обл.,
%
осадки,
мм/ч
давл.,
гПа
погр.,
м
6 марта, сб
сб600:00−7зсз268653 0.0 1016161
03:00−7зсз269276 0.1 1017289
06:00−9зсз129669 0.0 101624
09:00−7з258865 0.0 1017254
12:00−4з357046 0.0 1016868
15:00−2юз485727 0.0 10131288
18:00−4ююз4106360 0.0 1009992
21:00−4юз7148980 0.2 10041242
7 марта, вс
вс700:00−2юз71494100 2.1 9981232
03:00−2юз71495100 4.4 9931223
06:00−3зсз51188100 2.8 9901015
09:00−6зсз81370100 3.8 9911137
12:00−4з6106690 0.0 9921451
15:00−3з476795 0.5 9921302
18:00−5сз2680100 0.8 991329
21:00−9с3109198 0.8 993321
8 марта, пн
пн800:00−8ссз41089100 0.0 996577
03:00−10сз3109491 0.0 999400
06:00−9сз5109294 0.2 1001835
09:00−10ссз5108797 0.3 1003734
12:00−9ссз5881100 0.1 1006898
15:00−9ссз5879100 0.2 1009800
18:00−11ссз4987100 0.1 1011681
21:00−14ссз4992100 0.1 1014569
9 марта, вт
вт900:00−15ссз2795100 0.0 1016367
03:00−16ссз249896 0.1 1017113
06:00−18ссз129747 0.0 101820
09:00−15юв118754 0.0 1018121
12:00−10ююв0174100 0.0 1017470
15:00−10в2283100 0.1 1017469
18:00−10всв2486100 0.1 1016438
21:00−13всв4982100 0.1 1018329
10 марта, ср
ср1000:00−17всв399050 0.0 1020305
03:00−19всв279425 0.0 1022201
06:00−21всв23930 0.0 102480
09:00−19всв24830 0.0 1025228
12:00−14всв24700 0.0 1026534
15:00−11в236512 0.0 1025837
18:00−13всв228291 0.0 102568
21:00−17вюв258853 0.0 102699